Wind_Speed
31 32 32 32 34 37 38 38 38 38 38 38 39 41 40 40 39 37 35 35 34 33 32 31 30 30 30 31 32 33 31 28 31 36 38 39 39 39 40 40 40 40 40 40 40 40 40 40 40 40 39 37 38 38 38 39 38 39 38 37 37 34 28 24 13 8 13 16 19 22 18 18 22 21 19 19 17 16 15 13 12 11 10 10 10
31 31 31 32 34 36 37 38 38 37 37 38 40 41 41 40 38 36 36 36 34 33 32 31 30 29 30 31 31 32 32 30 30 33 36 39 39 38 38 38 38 38 38 38 39 39 39 39 38 37 37 37 38 38 38 39 39 39 40 37 38 36 31 26 18 12 13 14 17 23 21 19 21 20 19 18 16 15 14 13 11 10 10 10 10
30 30 30 32 34 35 35 37 38 37 38 40 41 41 41 39 37 36 36 35 34 33 32 31 30 30 30 30 31 32 32 31 31 33 35 37 38 38 37 37 37 38 38 38 38 38 38 38 36 36 36 36 36 37 37 38 39 39 40 39 37 35 32 28 20 16 18 17 19 26 25 22 22 21 20 17 14 14 14 12 11 10 10 10 12
30 30 31 32 33 33 35 37 37 38 40 41 42 41 40 39 37 36 35 35 34 33 32 31 31 30 30 31 31 31 32 33 33 34 35 35 37 38 38 39 38 38 38 38 38 38 38 37 36 36 35 34 34 35 35 35 36 37 37 36 34 32 30 27 23 21 24 21 21 26 27 25 23 20 19 17 15 15 14 12 11 10 10 11 12
30 31 31 32 33 33 35 37 38 40 41 41 42 41 40 38 37 36 35 35 34 33 33 32 32 31 32 32 31 31 32 33 33 34 35 35 35 37 38 39 39 38 38 38 38 38 37 36 36 36 34 33 33 33 33 32 32 33 32 31 29 27 26 24 23 26 28 26 23 24 24 24 22 19 18 18 16 15 13 11 10 9 10 11 12
30 32 31 32 34 35 36 38 40 41 41 41 41 41 40 39 37 36 35 34 34 34 34 34 33 33 33 32 32 31 31 32 33 34 36 36 35 35 36 36 37 37 37 37 37 37 37 36 36 35 34 34 34 33 32 31 30 30 29 28 26 25 24 22 22 24 27 27 25 24 23 23 21 19 18 16 14 12 11 9 9 9 9 10 11
29 31 31 33 34 36 37 39 41 42 42 42 41 40 39 39 38 37 35 34 34 34 35 35 34 33 32 32 32 31 30 31 33 35 36 35 34 34 34 35 35 35 36 36 35 35 36 35 35 34 34 34 35 34 33 32 31 29 29 28 26 25 24 22 19 19 22 23 22 22 22 21 19 17 15 13 12 11 10 9 8 7 7 9 11
27 29 30 32 34 36 38 39 41 42 42 41 40 40 40 39 38 37 35 34 35 35 35 35 34 33 32 32 32 31 30 31 34 35 34 34 34 33 33 33 34 34 33 33 34 34 33 33 33 34 34 34 35 35 35 34 31 29 29 28 27 26 25 23 20 19 21 21 19 19 19 19 18 15 13 12 11 10 9 8 7 6 7 9 12
25 27 29 31 34 36 38 39 40 41 41 40 40 41 40 39 37 36 35 35 35 35 35 34 34 33 33 33 32 31 30 31 33 34 34 33 33 33 32 32 32 33 32 32 32 32 31 31 31 32 32 32 34 34 35 35 34 32 31 30 29 28 26 24 23 22 21 20 18 17 16 16 17 16 14 13 11 8 6 6 6 5 7 10 11
25 26 28 31 34 35 37 38 40 40 40 40 41 40 39 38 36 35 35 35 34 34 34 34 34 34 33 33 32 32 32 31 32 34 34 33 33 32 32 32 31 31 31 31 30 30 30 30 30 30 30 30 32 33 33 34 35 35 35 33 32 30 27 25 24 23 22 20 18 17 16 16 17 17 15 12 9 7 6 5 5 4 6 10 10
27 27 30 32 33 34 35 37 38 39 39 39 39 38 36 35 34 33 33 33 33 33 33 34 35 34 33 33 32 32 32 32 32 33 34 33 32 32 31 31 31 31 30 30 30 29 29 28 28 29 29 30 31 32 32 34 35 35 35 33 31 29 27 26 25 24 23 20 18 19 18 17 17 15 12 9 8 7 6 5 4 4 5 6 8
29 30 32 34 34 34 34 35 36 37 37 37 37 36 34 32 31 32 32 32 32 33 33 35 35 34 33 33 32 32 31 31 31 32 33 33 32 32 31 30 30 30 30 29 29 29 28 28 28 28 29 30 31 31 32 33 34 34 33 31 28 27 26 25 23 24 24 21 18 18 18 16 15 14 11 9 8 7 6 6 4 4 4 4 7
32 33 34 35 35 35 34 34 34 35 35 35 34 32 31 32 32 32 32 32 31 32 34 35 34 33 33 32 32 31 30 30 30 32 33 33 33 32 30 30 29 29 29 29 29 29 28 28 28 27 28 30 31 32 34 34 33 32 30 30 30 28 26 21 17 16 18 19 18 18 17 15 13 12 10 8 8 8 7 5 3 2 3 5 7
35 35 36 36 35 34 33 32 33 34 33 32 31 30 31 32 32 32 31 31 32 33 34 34 33 33 32 32 31 30 30 29 30 32 32 32 32 31 30 29 29 29 29 29 29 29 29 29 29 29 29 30 32 34 36 37 35 32 31 32 30 26 22 18 15 13 14 15 15 14 14 13 11 11 10 8 9 8 6 5 3 3 4 5 7
36 37 37 36 35 33 32 31 31 32 31 29 29 29 31 31 31 30 30 31 32 32 33 33 33 32 31 30 30 29 29 29 29 31 31 30 29 29 29 29 28 28 28 28 28 28 28 29 29 29 30 32 34 36 38 38 36 34 33 31 27 23 18 16 14 13 13 13 13 12 13 12 11 11 10 9 8 6 5 4 3 3 4 5 7
37 37 36 35 34 33 31 29 29 29 28 27 28 29 30 30 30 29 29 29 30 30 31 32 32 31 30 29 29 29 28 28 28 29 29 28 27 27 28 28 27 27 27 27 27 27 28 28 28 29 30 33 35 36 38 38 36 34 31 28 25 21 17 14 13 13 13 13 13 12 12 11 10 10 9 7 6 5 4 4 4 4 4 5 6
36 36 34 34 34 33 30 29 28 27 26 26 28 29 29 29 29 28 28 28 29 30 31 30 29 29 28 27 28 28 28 27 27 27 26 25 25 26 27 26 26 26 26 26 26 25 26 26 26 27 29 32 34 36 37 37 36 33 30 27 24 21 17 15 14 14 13 13 12 11 10 10 9 8 7 6 5 5 6 6 6 6 5 3 4
36 36 36 36 35 32 30 28 27 26 25 26 27 28 27 27 26 26 26 27 28 29 29 28 26 25 25 26 27 27 27 26 26 25 24 23 23 26 26 25 24 23 23 22 23 23 24 24 25 27 29 32 35 37 38 37 36 33 30 27 24 20 18 17 16 15 13 12 11 10 10 9 9 9 8 8 8 8 9 9 8 7 5 4 4
36 36 37 37 36 33 30 28 26 25 25 25 25 25 25 25 24 24 24 25 26 26 25 24 24 23 24 25 25 25 25 25 24 23 22 22 24 26 26 24 22 21 20 20 21 22 23 23 25 27 30 34 37 39 38 37 34 31 29 27 24 21 20 19 17 16 15 14 13 12 12 11 11 12 11 10 10 10 9 8 9 8 7 7 6
35 36 37 36 34 32 29 27 25 24 24 24 23 23 22 22 22 22 22 23 23 22 21 21 21 22 22 23 23 23 23 23 22 21 21 21 23 25 25 24 23 22 21 21 21 21 23 24 25 27 31 36 38 38 36 33 30 28 27 25 22 20 19 18 16 16 15 16 15 14 14 13 13 12 11 10 9 8 8 8 10 9 8 8 8
34 34 33 32 31 28 26 25 24 23 22 21 21 20 20 20 20 20 21 21 20 19 18 19 19 20 20 21 21 21 21 20 19 19 19 19 21 24 24 24 24 23 21 22 22 22 23 25 26 29 34 37 38 38 34 28 25 25 23 18 15 16 17 17 16 16 16 17 16 15 15 14 13 11 10 9 8 8 9 9 9 8 8 8 8
32 30 29 28 27 25 24 22 22 21 20 19 19 19 18 18 18 19 19 19 19 18 17 18 18 17 17 18 18 18 17 16 15 16 17 18 20 23 24 23 22 22 22 22 23 24 25 27 28 31 34 36 37 36 30 25 22 20 17 13 12 14 16 17 18 18 18 18 17 16 16 14 13 12 11 10 10 9 9 9 8 7 7 7 7
28 27 26 25 24 23 22 21 19 18 18 17 17 17 16 16 17 17 18 18 18 17 17 17 16 15 15 15 15 15 14 13 13 14 15 17 18 21 22 22 21 22 23 23 24 26 27 28 29 31 33 34 35 33 27 23 20 17 13 13 14 15 17 18 19 19 20 19 18 17 16 15 14 13 12 11 11 10 9 9 8 8 7 6 5
24 24 24 24 23 22 20 19 17 16 15 15 15 15 15 15 16 16 18 18 18 18 17 16 16 15 14 14 14 14 14 13 12 13 15 17 17 18 20 21 20 21 23 24 25 27 27 28 30 32 32 32 32 29 24 21 17 14 13 14 15 17 19 19 20 21 21 20 20 19 17 16 15 14 13 12 11 10 9 9 8 7 6 5 5
22 22 22 22 22 20 19 18 16 15 14 14 15 15 15 15 16 16 17 18 18 17 16 16 16 15 14 14 13 13 13 13 12 13 15 17 17 17 18 18 19 20 22 23 25 26 27 28 31 31 31 30 28 25 21 18 15 14 15 16 18 19 19 20 21 22 22 22 21 20 19 17 16 14 13 12 11 10 9 8 7 6 5 5 5
22 21 20 20 20 19 18 17 16 15 14 14 15 16 17 17 18 18 18 17 17 16 16 15 15 14 14 13 13 13 13 12 13 14 15 16 16 17 17 17 19 20 20 21 23 25 27 30 32 31 29 27 25 22 19 17 16 16 17 18 18 19 19 20 22 23 23 23 22 21 19 18 16 15 14 13 11 10 9 8 7 6 5 4 5
23 21 20 19 18 18 17 16 15 14 14 14 15 15 17 18 19 19 19 18 17 16 16 16 15 15 14 14 15 14 14 14 15 16 17 18 17 18 18 19 20 21 20 22 25 27 30 32 32 30 27 25 23 22 21 20 19 19 19 19 18 18 17 19 22 23 23 23 22 20 19 17 17 16 15 13 12 11 10 8 7 6 5 5 6
24 22 20 17 16 16 15 15 15 14 14 14 15 16 17 19 20 20 21 21 21 20 20 20 19 19 18 17 17 16 15 16 18 19 20 20 20 21 21 21 22 22 23 26 29 30 32 32 31 29 28 26 24 23 22 21 20 20 20 20 19 18 17 19 21 21 21 21 21 20 19 19 18 16 15 13 12 11 9 8 7 7 6 6 6
23 23 20 17 15 14 13 14 14 14 14 14 14 15 17 18 20 20 20 21 22 22 22 21 21 21 21 21 21 19 18 19 21 21 22 21 22 22 23 23 23 24 26 31 33 33 33 32 31 29 28 27 26 25 23 22 21 20 21 21 20 19 19 21 22 21 21 21 20 21 21 20 18 17 16 14 12 10 9 9 8 7 7 7 7
22 22 20 17 15 13 13 13 13 13 13 13 13 12 13 15 17 18 17 18 18 19 19 19 20 21 22 23 23 22 23 24 23 23 22 21 21 22 23 23 25 27 31 34 35 33 31 30 29 29 28 27 27 26 25 24 24 23 22 21 20 20 21 21 20 20 21 20 19 20 21 20 19 18 17 15 13 12 11 10 9 9 9 9 8
20 20 19 17 16 14 14 14 13 13 13 13 12 12 11 11 13 14 14 15 15 15 15 16 18 20 22 23 21 20 22 24 24 23 23 22 22 22 23 25 26 29 34 36 33 30 29 28 26 26 27 27 26 27 27 27 27 26 25 22 20 20 21 20 19 19 19 19 19 20 20 20 19 18 16 15 14 13 12 11 10 10 10 10 9
19 20 19 17 16 15 14 14 13 13 12 12 12 12 12 11 10 10 11 12 12 12 12 13 15 18 21 22 21 20 22 24 24 24 23 23 23 24 26 27 28 31 34 35 31 28 28 27 26 26 26 26 26 27 28 28 28 28 26 24 23 21 20 18 18 18 18 19 20 20 19 19 18 16 15 15 14 13 13 12 11 11 11 10 9
19 19 18 17 16 15 14 13 13 12 12 11 11 11 10 10 10 10 10 9 9 8 9 10 13 16 20 21 20 21 23 23 23 24 24 24 24 26 27 28 29 31 33 31 28 27 26 26 26 27 27 27 27 27 28 29 29 28 26 25 24 22 19 17 16 16 17 19 19 18 18 18 17 16 16 15 14 13 13 13 12 12 11 10 9
20 19 18 16 16 15 14 13 13 12 12 11 10 9 8 7 9 11 12 12 11 9 9 10 12 16 20 20 20 22 24 23 23 25 25 25 25 26 27 26 27 28 29 28 26 27 27 25 26 27 27 27 26 27 28 28 27 26 24 23 21 20 19 17 15 16 17 18 17 17 17 17 17 17 16 15 14 14 13 13 13 12 11 10 9
21 20 18 17 18 18 17 16 15 14 13 13 12 11 10 9 8 9 11 12 13 13 12 13 13 15 19 20 21 23 25 24 23 25 26 26 26 26 25 24 23 24 26 24 23 24 26 26 25 25 25 25 25 26 27 27 25 24 23 21 20 19 18 16 16 17 18 18 18 17 18 18 17 16 15 14 14 14 14 13 13 12 10 9 8
20 21 20 20 20 21 20 19 19 19 18 17 16 14 13 12 11 10 9 11 13 13 13 14 13 13 16 18 20 22 24 23 23 24 25 25 25 25 25 24 23 23 23 22 21 20 21 22 22 22 23 23 23 24 24 23 22 21 21 21 20 18 17 17 18 19 19 19 18 18 18 18 17 16 15 14 13 13 13 12 12 11 10 9 8
20 21 22 22 22 22 21 20 20 20 20 20 19 17 15 14 13 12 11 12 13 13 13 14 14 13 14 16 18 20 20 19 19 20 20 21 22 23 23 23 22 21 21 20 19 17 17 18 18 19 20 21 21 21 21 20 19 19 20 19 18 17 17 18 18 19 19 19 19 19 19 18 17 16 15 15 14 13 13 13 12 12 11 10 9
21 22 23 23 23 22 22 21 20 20 20 20 20 20 19 17 15 14 13 13 13 13 13 14 14 14 15 17 18 19 18 17 17 18 19 20 21 22 21 20 19 19 19 18 17 16 16 16 16 17 18 18 18 18 18 18 18 19 19 18 17 17 17 17 18 19 19 19 19 19 18 17 16 16 15 15 14 14 13 13 13 12 12 11 10
22 22 23 23 23 23 23 22 21 20 20 20 20 21 21 19 18 16 15 14 13 12 12 13 12 13 15 18 20 21 20 19 20 21 22 22 21 20 19 17 16 16 16 15 15 15 14 14 14 14 14 15 15 16 16 16 17 18 18 17 17 17 18 19 19 20 20 19 19 18 18 17 16 15 15 15 15 14 14 14 14 13 12 12 11
22 21 22 22 22 22 22 21 20 20 20 19 19 19 19 19 18 17 16 15 14 13 12 13 13 14 16 19 21 21 21 20 21 22 21 20 19 18 17 15 15 14 14 14 14 13 13 13 13 13 13 13 13 13 14 15 16 17 16 16 16 18 18 19 20 20 19 19 18 18 17 16 16 15 16 16 15 15 14 14 14 13 13 13 12
21 21 21 21 22 22 21 21 22 21 20 19 18 18 17 17 17 16 16 15 15 14 14 14 15 15 17 18 19 20 20 20 21 20 19 18 17 16 15 13 12 13 13 13 12 12 12 13 13 12 12 12 13 13 14 15 15 16 16 16 17 18 18 19 19 19 18 17 17 17 17 16 16 16 17 16 16 15 15 15 15 14 14 14 13
20 20 21 21 22 23 23 23 23 22 21 20 19 18 18 17 16 16 16 15 15 15 15 16 16 15 15 15 17 18 19 19 19 18 17 16 15 13 12 12 11 11 11 11 10 10 10 11 11 12 12 13 14 14 15 15 15 16 16 17 17 18 18 18 18 17 17 17 17 17 17 16 17 17 17 16 16 16 16 16 16 16 15 15 14
19 19 19 21 23 24 24 24 23 23 23 22 21 20 19 18 17 17 16 16 16 17 17 18 17 15 14 15 16 17 17 18 17 16 14 14 12 11 11 11 11 11 11 11 10 10 10 11 11 12 12 12 12 13 13 13 14 15 15 16 16 16 16 17 17 17 16 16 17 17 17 17 17 17 17 17 17 17 17 17 18 17 17 17 16
18 18 18 18 19 20 20 21 21 22 22 22 21 20 19 19 19 19 18 18 18 18 20 20 18 17 16 15 15 16 16 16 15 14 12 11 10 10 9 9 10 11 11 11 11 11 11 11 11 11 11 11 11 11 12 12 13 13 14 14 14 15 15 16 15 15 15 15 16 17 17 18 18 18 18 18 19 19 19 19 19 18 18 18 18
17 17 17 16 17 17 17 18 19 19 19 19 18 17 18 19 19 19 20 20 20 20 21 21 19 17 17 16 15 15 15 14 12 12 11 10 10 9 9 9 9 9 10 10 9 9 9 9 9 9 9 10 10 11 12 12 13 13 13 14 14 14 14 14 13 13 13 14 15 16 17 18 18 19 19 19 20 20 20 20 19 19 19 19 19
16 16 16 16 17 17 17 18 19 19 19 19 18 18 18 18 19 19 20 20 21 22 23 22 20 18 17 16 15 14 13 13 12 11 10 10 10 10 9 9 9 9 9 9 8 8 8 8 8 8 8 9 10 10 11 12 12 12 13 13 13 13 13 13 13 13 14 15 16 16 17 18 19 19 20 20 20 20 21 20 20 20 20 20 20
15 15 16 17 17 17 17 18 19 19 20 19 19 18 18 18 18 19 20 20 21 22 22 21 20 18 17 15 14 14 13 12 11 11 10 10 10 9 8 8 8 8 8 8 8 7 7 7 7 8 8 9 9 10 10 11 11 12 12 12 12 12 13 13 13 14 14 15 16 17 18 19 19 19 20 20 20 21 21 21 21 21 20 20 20
13 15 16 17 18 18 18 18 19 19 19 19 19 18 18 17 18 18 19 19 20 20 21 20 19 18 17 15 14 13 11 10 9 9 10 9 9 9 9 9 9 8 8 8 7 7 7 7 7 7 8 8 9 9 10 10 10 11 11 11 11 12 12 13 14 14 15 16 17 17 18 19 19 19 20 21 21 22 22 22 21 21 21 21 20
12 14 15 16 17 18 18 18 18 18 19 19 19 18 18 17 17 17 18 18 19 19 19 20 19 18 17 15 14 12 10 9 9 10 11 11 10 10 10 10 9 9 8 7 7 7 7 7 7 7 8 8 8 9 9 9 10 10 11 11 11 12 13 14 15 15 16 17 18 18 19 20 20 20 21 22 22 23 22 22 22 21 21 21 21
11 12 13 15 16 17 17 17 17 17 18 18 19 19 18 18 17 17 17 18 18 19 19 20 19 18 16 15 13 11 10 10 11 12 12 11 11 10 10 9 9 8 8 7 7 6 6 6 7 7 7 8 8 9 9 10 10 11 11 12 13 14 14 16 16 17 18 19 19 19 20 21 21 21 22 23 23 23 23 22 22 22 22 22 22
10 11 12 13 15 16 17 17 17 17 18 18 19 19 19 18 18 18 18 18 18 19 18 18 17 16 14 13 12 11 11 12 12 12 11 11 10 9 9 8 8 7 7 6 6 6 6 6 6 7 8 8 9 10 10 11 11 12 12 13 14 15 15 16 17 17 18 19 20 20 21 21 22 22 23 23 23 23 23 22 22 23 23 23 22
Wind_Direction
256 254 253 252 253 252 253 253 253 253 253 253 253 254 254 254 253 254 253 251 250 248 249 249 250 250 249 249 249 246 245 248 252 251 246 243 243 242 242 239 237 235 233 231 230 231 232 231 231 232 233 233 233 234 233 230 229 225 223 222 218 216 218 213 200 174 186 196 202 201 198 198 199 198 198 200 201 203 208 213 220 231 240 250 260
260 259 257 255 255 255 255 255 255 255 255 255 254 255 255 254 254 254 254 253 250 249 248 248 249 250 248 249 248 246 247 249 252 252 248 243 241 240 239 237 236 235 233 233 233 234 234 232 233 235 236 236 235 235 233 230 228 224 222 222 218 218 219 211 191 165 171 185 189 190 189 188 193 196 198 201 204 208 215 219 225 238 248 258 269
266 263 260 259 259 258 258 257 256 255 255 255 256 255 255 255 254 254 254 254 252 250 250 249 248 248 248 248 247 247 250 252 252 253 250 244 240 239 239 238 237 236 235 236 236 235 233 232 235 237 235 235 234 234 233 231 228 225 223 222 220 219 216 207 195 172 164 175 187 187 186 189 195 199 201 204 211 217 224 227 232 244 254 265 278
272 265 261 261 261 261 261 259 257 256 255 256 256 256 256 255 254 254 254 254 253 251 250 248 247 247 246 246 247 248 252 252 250 250 250 248 244 241 240 239 238 238 238 238 237 235 233 234 236 235 233 232 232 231 230 228 226 223 221 219 218 216 209 203 205 193 172 169 181 187 189 193 197 200 203 208 216 224 231 234 237 248 258 271 284
277 271 264 262 261 261 262 261 259 257 256 257 257 256 256 256 255 254 253 252 252 251 249 247 245 245 245 245 247 249 252 251 249 250 251 250 247 243 241 239 239 240 240 240 239 238 237 237 235 234 231 229 227 226 224 221 218 215 213 211 207 205 200 196 199 194 178 169 173 183 190 194 197 202 208 213 220 229 237 241 244 254 266 276 287
277 274 268 263 261 261 261 260 259 259 258 258 259 258 257 256 255 254 252 251 251 250 248 246 245 245 245 245 246 249 252 250 250 252 252 250 248 244 241 240 240 241 241 240 240 240 240 238 235 233 230 226 222 220 216 211 207 203 200 197 193 190 189 185 183 180 176 172 173 181 189 195 200 206 212 219 226 234 240 245 251 259 271 283 292
276 274 271 266 263 262 263 262 261 261 261 260 259 258 257 256 255 254 252 251 250 248 246 246 245 246 246 245 244 247 251 252 252 253 251 248 246 243 241 240 241 241 242 241 241 240 239 237 235 233 230 225 221 216 210 204 200 197 193 187 182 181 178 175 174 177 177 175 176 183 191 199 205 210 214 219 225 232 240 249 257 266 282 292 297
280 276 272 267 264 266 268 267 265 264 263 262 259 257 255 254 254 253 251 249 248 247 246 246 246 246 245 244 243 245 249 252 252 251 248 246 245 243 241 241 241 241 242 241 240 239 237 235 234 234 230 226 223 218 211 203 195 189 187 182 179 179 176 174 178 183 181 179 181 187 191 198 205 208 210 211 215 226 236 243 256 274 286 289 294
288 281 274 268 269 272 272 270 267 266 264 261 259 257 254 253 251 250 249 248 248 247 246 246 246 244 243 243 242 243 245 249 251 250 249 247 245 244 243 241 241 241 240 239 237 235 235 234 233 232 229 226 223 219 212 206 197 187 181 179 179 180 180 180 182 183 182 182 186 188 188 193 198 199 200 204 211 222 229 237 250 263 279 289 299
295 286 277 275 276 275 272 270 268 265 263 261 260 257 254 253 250 248 247 247 246 246 244 244 243 243 242 242 241 241 242 246 249 250 250 250 248 246 244 242 241 239 237 234 232 231 231 230 229 228 226 223 220 215 209 204 199 192 185 182 182 181 182 184 185 185 186 188 191 189 185 190 197 198 200 204 210 219 226 237 244 259 293 305 310
301 292 286 285 283 277 273 270 267 264 263 262 259 256 253 252 250 248 247 246 246 244 242 242 242 241 241 242 241 241 242 245 248 248 249 249 248 246 244 243 240 236 233 231 229 227 225 224 223 222 220 217 213 209 204 200 196 193 188 184 183 186 188 189 189 191 193 193 195 193 190 194 198 199 199 203 208 216 224 233 252 287 317 322 315
304 297 295 293 288 283 278 274 269 266 264 262 259 255 252 250 249 248 247 245 244 243 241 241 241 241 240 240 240 240 242 245 247 248 248 247 246 246 244 242 238 234 231 229 227 225 221 217 217 216 214 212 207 201 197 195 192 188 183 182 186 192 196 195 194 197 198 197 197 197 196 195 195 197 201 204 205 212 225 243 269 301 321 319 304
306 301 298 295 290 287 283 277 273 269 266 263 260 255 250 248 246 245 245 244 243 240 240 240 240 240 239 238 239 240 242 245 247 247 247 245 244 244 241 239 236 233 230 227 224 222 217 213 210 208 208 207 201 195 190 186 183 183 185 188 190 191 194 196 197 202 206 206 204 201 198 195 194 197 201 203 206 213 227 249 272 295 304 303 295
307 303 299 295 292 289 285 279 275 272 269 264 259 254 251 248 246 244 242 240 238 237 237 238 238 238 237 237 238 240 242 246 248 247 246 244 243 242 238 236 235 232 229 225 222 219 216 212 207 203 201 198 194 191 186 180 180 185 189 188 186 185 188 190 190 195 203 207 207 201 196 194 193 193 196 205 215 220 225 234 249 275 287 293 297
305 302 298 296 295 292 288 282 278 274 270 264 259 254 251 249 247 244 241 238 236 236 236 237 236 236 236 236 237 239 243 246 248 247 246 244 242 238 234 233 232 231 228 225 222 219 217 213 207 201 196 192 190 188 183 181 182 183 182 180 179 181 185 185 187 192 195 197 197 193 188 190 192 191 195 205 212 215 221 229 249 274 279 293 304
303 300 297 297 298 296 292 287 282 277 271 264 258 253 251 249 246 244 241 238 237 236 236 236 235 234 234 234 235 238 242 245 246 246 245 242 238 233 231 230 229 227 225 222 220 219 216 212 206 201 195 191 188 185 181 180 180 178 174 174 176 179 180 182 188 193 192 189 187 185 182 184 187 188 190 198 205 208 214 227 251 257 259 285 293
303 302 302 303 302 299 295 290 284 279 272 265 259 256 252 250 247 243 239 236 234 233 233 234 234 233 233 233 235 237 241 244 245 244 243 239 231 226 225 225 223 223 222 220 218 216 214 210 205 198 193 189 185 182 180 179 178 175 173 173 174 174 175 181 186 186 184 181 177 175 174 173 173 174 176 185 200 210 209 215 231 238 241 257 261
307 307 307 307 305 302 298 291 285 279 272 265 261 259 255 252 249 245 240 237 235 234 234 232 231 232 233 234 236 237 240 244 244 241 239 233 224 220 221 219 219 220 219 216 215 212 210 207 203 198 191 185 182 180 181 180 177 174 173 171 169 170 174 178 178 172 168 167 164 161 161 162 164 170 177 185 200 215 220 220 224 229 231 229 236
310 309 308 307 305 303 298 291 284 277 271 266 263 260 257 254 251 246 241 238 237 235 232 230 229 230 232 234 235 237 239 242 241 238 234 226 219 219 219 216 214 215 212 209 206 204 202 200 200 197 188 181 179 179 180 179 176 174 174 170 167 172 177 177 174 169 164 162 160 159 160 164 172 179 187 195 204 218 227 227 231 236 236 231 232
310 308 306 305 303 301 297 291 285 279 273 269 264 258 254 249 244 241 237 233 233 233 230 228 228 228 229 230 232 234 236 239 239 237 231 223 218 218 218 214 211 208 204 200 194 190 190 188 189 190 182 176 177 178 178 178 176 173 173 172 172 175 177 175 173 171 166 162 162 164 167 173 179 185 193 199 207 220 228 231 238 241 236 231 226
311 308 305 303 300 299 295 290 285 281 275 269 262 254 248 242 236 232 228 225 224 224 223 222 222 224 227 228 229 232 235 238 238 233 226 218 214 216 216 213 209 201 192 188 184 179 177 176 179 181 178 174 175 177 177 179 176 172 172 173 174 176 175 171 168 167 165 165 167 171 174 177 181 187 196 203 209 218 222 223 231 236 237 239 237
312 308 304 300 297 296 292 288 283 279 273 266 258 250 242 234 228 223 218 215 213 212 211 212 213 217 221 224 226 229 230 230 228 222 215 210 212 216 215 211 207 197 184 177 178 177 174 173 174 176 174 173 175 176 175 176 175 172 171 171 172 174 173 169 166 167 169 171 173 175 176 178 182 187 193 197 201 208 216 222 231 244 254 258 259
312 306 301 298 295 292 289 284 280 274 269 261 253 245 236 227 220 214 209 204 200 198 199 201 202 205 209 213 217 220 219 217 215 211 206 205 210 215 213 209 206 199 189 181 178 176 174 173 173 172 171 172 173 174 174 173 172 171 172 173 173 173 171 170 170 172 175 177 178 177 178 182 185 185 188 194 200 212 225 234 243 250 257 263 268
307 302 299 295 292 289 284 279 274 267 262 254 245 238 230 221 212 207 202 196 190 188 189 191 192 192 196 201 205 209 209 210 210 207 203 205 209 209 208 207 206 202 197 189 181 177 175 173 170 169 169 170 172 173 174 173 171 171 171 172 172 172 173 173 175 178 180 181 180 178 180 187 188 188 194 203 211 222 229 235 242 243 245 253 257
301 297 294 291 288 285 280 274 268 261 253 244 237 230 221 210 202 198 194 190 187 183 182 185 187 186 189 192 195 199 201 200 198 197 198 201 202 201 202 203 201 197 192 186 182 177 173 168 166 166 167 167 167 170 171 169 167 167 167 170 174 177 178 178 180 184 185 183 183 183 183 187 192 199 207 211 216 224 227 228 233 236 240 244 242
296 292 289 287 285 281 275 270 262 254 245 236 231 226 217 207 198 192 189 187 185 183 180 181 182 182 183 185 186 188 191 191 189 188 189 191 192 193 194 191 190 189 187 182 177 171 164 162 162 161 162 163 165 167 165 159 158 164 171 177 181 182 184 187 189 191 189 185 186 187 185 188 196 204 209 212 214 219 220 220 223 228 231 225 218
291 287 283 283 280 275 270 265 257 247 237 227 221 216 211 205 198 191 187 184 182 180 179 178 179 179 179 178 178 177 179 182 181 179 179 180 179 180 180 178 178 179 176 169 164 159 157 158 159 159 160 163 165 165 161 160 166 173 179 185 188 189 194 199 198 195 192 189 188 187 187 192 198 202 206 210 210 209 210 214 219 217 209 205 202
287 283 279 276 272 268 264 258 251 241 229 221 214 209 205 202 201 199 197 193 188 184 183 182 184 184 179 174 169 167 170 175 175 173 174 173 170 170 171 171 172 170 165 159 155 154 154 154 155 157 160 160 161 161 164 169 177 182 183 186 189 191 194 197 196 195 194 191 189 188 191 195 199 202 205 207 206 205 203 203 208 206 197 196 201
284 280 276 269 262 258 253 249 245 235 224 217 213 211 209 206 205 204 204 203 200 195 190 188 188 187 182 177 171 167 168 172 172 173 174 173 172 171 171 171 170 166 163 159 155 152 152 153 154 157 158 159 160 164 169 174 178 182 185 186 186 187 189 191 193 192 192 193 192 193 194 197 199 202 203 201 201 203 200 196 197 198 194 194 199
281 277 273 265 255 246 239 236 235 229 222 214 207 206 208 208 207 205 204 206 207 206 204 201 198 194 188 182 180 178 177 173 171 173 175 176 177 175 173 173 170 164 162 162 158 155 154 155 157 159 161 163 166 169 173 176 177 180 183 184 184 187 190 193 195 193 192 195 197 198 199 201 201 201 201 200 198 196 196 197 197 198 198 198 196
275 272 269 262 252 241 229 224 222 220 218 213 202 194 191 195 204 208 208 207 208 213 215 213 209 203 193 186 183 184 180 173 170 172 174 174 175 175 172 171 168 165 166 166 161 158 158 158 160 164 168 171 175 178 180 182 181 180 180 181 185 190 192 193 193 193 194 196 200 204 207 207 205 203 200 199 197 194 194 198 201 202 203 201 197
265 266 264 259 252 242 229 218 212 211 211 208 201 193 181 172 178 193 202 203 201 205 212 216 214 207 198 191 185 180 174 170 170 173 173 172 174 173 170 168 167 168 171 170 165 163 165 166 167 172 176 179 183 186 187 187 186 184 182 182 187 193 196 196 196 198 201 203 205 209 211 210 208 205 201 199 199 198 197 200 204 205 205 204 201
258 259 258 253 246 240 231 220 210 206 206 204 202 198 187 174 165 165 171 179 181 185 196 204 204 201 197 195 189 179 170 167 168 172 173 172 172 170 167 168 169 170 172 173 170 170 173 176 178 182 186 189 191 192 192 192 191 189 189 190 192 194 198 200 203 206 209 211 213 215 215 212 209 206 202 201 202 202 203 206 207 207 207 208 206
256 253 252 247 239 234 229 221 213 207 204 202 203 204 202 192 173 160 155 155 158 165 177 184 190 193 194 194 189 179 171 167 168 173 173 171 169 167 165 165 170 174 178 181 181 181 183 186 189 191 193 195 195 195 194 194 193 193 194 196 197 197 198 201 208 212 213 215 219 221 218 214 211 209 207 204 204 206 209 211 211 212 214 214 211
257 253 248 242 235 229 224 218 212 208 205 202 201 201 201 198 186 172 164 156 152 156 164 172 182 191 194 192 186 179 174 170 170 172 173 172 170 168 165 163 168 177 185 189 190 191 193 195 196 198 198 197 197 197 196 195 196 196 198 199 200 200 203 208 213 216 217 220 225 224 221 217 216 216 214 211 210 212 214 215 217 220 222 223 224
254 252 247 240 233 228 224 218 211 207 204 201 200 201 198 195 191 187 179 166 156 153 157 164 173 186 193 193 186 179 175 174 173 174 175 175 173 171 169 169 174 182 190 195 198 199 201 202 202 201 200 198 199 199 198 198 200 202 204 206 206 207 211 217 219 219 222 226 228 225 222 220 219 219 219 220 221 220 221 224 226 226 228 232 235
248 246 243 240 233 226 222 218 214 210 205 199 199 199 196 194 193 188 179 170 163 156 152 156 161 169 177 182 179 174 173 173 173 174 175 175 176 178 179 179 181 186 192 199 202 202 203 205 205 204 202 200 199 199 200 203 207 209 210 212 215 218 222 225 226 227 228 229 229 226 224 224 223 223 224 226 227 226 226 228 229 230 233 236 237
248 244 241 239 234 225 219 214 211 210 206 201 198 195 192 191 190 186 178 171 165 157 153 155 158 159 162 166 167 166 165 164 165 169 173 176 180 184 185 184 185 188 192 197 202 203 203 204 204 204 203 202 202 203 206 211 213 213 214 217 220 224 227 229 232 233 232 232 231 230 229 228 227 228 230 231 232 233 233 233 233 234 236 237 239
251 245 241 238 232 225 218 210 205 205 205 203 199 194 191 189 185 182 178 172 165 159 156 157 160 161 160 161 161 161 159 160 164 168 172 177 181 184 185 185 186 189 191 194 198 200 201 200 201 202 204 208 211 212 214 216 215 216 218 221 223 225 228 232 234 234 233 233 233 232 233 233 231 233 235 236 238 239 238 238 239 239 240 244 246
253 245 239 233 226 221 215 207 202 201 201 201 200 196 193 189 184 180 176 169 165 162 160 161 164 165 163 163 164 164 163 163 165 167 169 172 176 180 184 188 189 191 193 195 198 202 205 204 205 207 210 213 215 214 215 217 217 218 222 226 228 233 236 238 238 237 236 237 238 237 238 238 236 236 238 238 240 241 241 242 245 245 246 250 252
256 246 237 229 221 216 211 204 201 200 199 200 200 198 194 189 184 179 174 169 166 164 163 165 167 166 166 169 172 172 169 165 163 165 167 169 171 174 178 184 189 192 195 200 206 210 211 207 207 210 211 212 214 214 216 217 218 221 226 231 235 239 240 240 239 240 240 242 243 242 243 243 241 241 242 242 242 243 244 245 247 248 250 253 254
259 249 238 228 219 214 209 204 200 197 195 196 197 196 194 190 184 179 175 171 168 165 163 164 163 162 167 174 179 179 176 169 165 166 167 168 171 174 177 181 188 192 197 203 208 210 209 206 207 211 213 213 215 216 218 220 223 227 232 236 238 239 239 239 240 242 243 245 246 246 246 247 246 245 246 247 246 245 246 248 250 251 253 255 257
261 252 240 229 220 215 211 205 198 192 190 191 192 193 192 188 183 180 175 172 171 169 165 162 160 161 167 174 179 179 177 172 170 171 170 171 177 183 187 191 195 196 199 202 202 203 206 207 208 210 212 214 217 220 223 227 229 231 234 236 237 238 239 241 242 244 245 246 248 249 250 249 248 247 247 247 247 248 249 250 252 254 256 258 260
258 251 241 231 223 217 211 204 196 190 188 186 186 187 188 186 182 179 176 173 174 174 170 166 165 166 168 172 175 177 175 174 175 177 180 185 193 199 198 197 195 195 199 201 200 200 201 200 200 203 205 207 211 216 219 222 225 227 230 233 235 237 240 243 245 248 250 251 253 254 254 254 252 251 250 250 250 250 251 252 253 256 258 259 260
254 246 237 227 219 212 205 198 193 188 182 178 176 178 182 183 180 178 177 176 176 175 174 172 172 172 172 172 174 176 177 179 184 189 194 199 202 200 196 191 188 188 191 191 190 191 192 190 192 197 201 205 210 214 218 222 226 229 232 235 238 241 244 246 248 249 250 251 252 254 255 255 254 253 254 254 253 253 254 256 257 258 259 259 259
250 238 226 215 208 203 199 193 189 183 178 175 175 175 178 181 181 180 180 180 179 176 175 174 175 178 177 176 179 182 186 190 194 196 195 194 192 189 188 187 184 183 183 181 182 184 184 186 191 197 202 209 214 218 223 227 231 234 238 241 243 247 249 250 250 249 249 250 252 253 253 254 254 254 255 257 257 257 258 258 258 258 259 259 261
244 231 217 206 199 196 194 189 183 178 175 173 174 174 176 178 180 181 182 181 179 177 175 175 178 181 182 181 184 186 187 191 194 192 189 189 188 186 186 185 184 184 185 184 187 189 189 192 198 204 209 216 221 225 230 234 237 241 245 248 252 255 257 257 257 257 257 257 257 256 255 255 256 256 257 258 258 258 258 258 258 258 259 260 262
237 223 211 200 192 190 189 185 180 176 172 169 169 171 173 176 178 180 180 180 178 177 176 177 180 184 185 184 185 185 186 190 191 187 185 184 182 180 181 183 186 189 191 191 193 197 199 203 209 215 221 226 230 234 239 243 247 252 257 260 263 265 265 264 263 262 260 259 259 258 258 259 259 259 259 259 259 260 260 259 259 259 260 261 263
226 214 203 193 185 183 183 181 177 173 169 167 166 167 168 171 174 177 178 178 178 178 180 181 183 187 188 185 185 186 187 182 174 169 169 172 174 177 182 186 189 194 197 199 203 207 210 214 220 225 231 236 241 246 251 255 259 262 265 267 267 267 265 264 264 263 262 262 262 261 261 261 261 261 260 260 260 260 260 259 260 260 261 262 263
212 203 194 184 176 173 173 173 171 168 166 165 164 164 165 168 172 174 176 177 177 179 182 185 186 188 189 188 186 185 178 167 163 165 169 174 179 184 187 190 194 198 201 204 208 214 218 223 229 236 242 247 252 256 259 261 263 264 265 265 265 264 264 263 263 263 263 263 263 263 263 263 263 262 261 260 260 259 259 259 260 261 261 262 263
197 189 183 176 168 165 166 167 166 165 164 163 162 162 163 166 169 171 174 177 177 178 181 183 184 184 184 182 179 175 170 167 169 173 177 181 186 189 191 195 198 201 205 210 215 222 230 236 242 247 250 253 255 257 258 260 262 263 264 263 262 262 263 263 263 263 262 262 262 262 262 262 263 262 262 261 260 259 260 261 261 262 263 263 263
Height
777 777 778 779 779 779 779 780 780 781 781 781 781 780 780 780 780 781 782 781 781 781 781 782 783 784 786 787 788 789 790 791 792 792 793 793 793 793 794 795 795 795 796 797 798 798 799 800 801 802 804 805 807 809 810 812 814 815 816 818 819 821 823 824 827 830 832 832 834 838 841 843 846 847 848 849 849 850 851 852 854 855 856 857 858
775 775 776 776 776 775 776 777 777 778 778 778 777 776 777 778 779 780 780 779 779 779 778 778 779 781 782 783 785 786 787 787 788 788 788 788 789 790 790 791 792 792 793 794 794 795 796 797 798 799 801 802 803 805 806 808 810 811 812 814 816 817 820 822 824 827 830 832 834 837 840 842 844 846 847 849 849 850 850 850 851 853 854 855 856
773 773 774 773 772 773 773 773 774 774 774 773 773 773 773 775 776 777 777 778 778 777 776 777 776 777 778 779 781 782 783 784 785 784 784 784 785 786 787 787 788 789 789 790 791 792 793 794 794 795 797 798 799 801 803 805 806 807 809 811 813 815 818 820 821 824 828 831 833 836 838 840 842 844 846 848 849 849 849 849 850 851 852 853 853
770 770 770 769 770 771 771 771 771 770 769 768 768 769 770 771 772 773 774 775 775 775 775 775 774 774 774 775 777 778 779 781 781 781 780 780 781 782 783 784 784 785 785 786 787 788 789 789 789 791 793 794 796 798 800 801 803 804 806 808 811 814 817 819 820 822 826 829 832 834 836 838 840 842 844 845 847 847 848 848 848 849 850 851 851
768 767 767 766 766 767 767 768 767 766 765 765 765 766 767 768 769 769 770 771 771 772 772 772 772 771 771 772 773 774 776 777 778 778 777 777 778 779 779 780 780 781 782 783 784 785 785 785 786 788 789 791 793 795 796 798 800 802 804 807 809 813 817 819 821 822 824 827 830 833 836 837 838 840 841 842 844 845 846 846 846 847 848 848 848
766 765 764 764 763 763 763 763 762 761 761 761 762 763 764 765 765 766 766 767 767 768 769 769 769 768 768 769 770 771 772 774 774 774 774 774 775 775 776 776 777 778 779 780 781 782 782 783 784 785 786 787 789 791 793 796 798 801 803 806 809 812 816 819 821 823 825 827 829 832 834 835 836 837 838 840 842 843 844 844 845 846 846 846 846
764 763 762 761 760 760 759 758 757 757 757 757 757 758 760 760 761 761 762 763 764 764 764 765 765 765 765 766 766 768 769 770 771 771 771 772 772 772 773 773 774 775 776 777 777 778 779 780 781 782 783 785 786 788 791 794 796 799 802 804 807 811 815 818 821 823 825 827 829 830 832 833 834 836 837 838 839 840 842 843 844 844 844 844 843
761 761 759 758 757 756 755 754 754 754 754 754 754 754 754 755 756 757 758 759 759 760 760 761 762 762 762 762 763 764 766 767 767 768 768 769 769 769 770 770 771 772 772 773 774 775 776 777 778 779 781 782 784 786 788 791 795 798 801 803 806 810 814 816 819 822 824 826 828 829 830 831 833 834 835 836 837 838 840 841 842 842 842 841 841
758 758 756 755 754 752 752 751 751 751 751 751 751 750 750 750 751 752 754 754 754 756 757 758 759 758 758 759 760 761 762 763 764 765 766 767 767 767 767 768 768 769 769 770 771 772 773 774 775 777 778 780 782 784 786 789 792 795 798 802 805 809 812 815 817 819 821 824 826 827 828 830 831 832 833 834 835 836 838 839 840 840 840 839 838
755 754 752 751 750 749 749 748 748 747 747 746 746 746 747 747 748 748 749 750 751 752 753 754 755 755 755 756 756 757 758 759 761 763 764 765 765 765 765 765 766 766 767 767 768 769 770 771 773 774 776 778 780 783 785 788 790 792 795 799 803 807 810 814 816 818 820 822 824 825 826 827 829 830 831 832 833 834 836 837 837 838 837 836 835
752 751 749 747 746 746 745 745 744 744 743 743 742 742 743 744 745 746 746 747 748 749 750 751 751 751 752 752 753 753 754 755 758 760 761 762 763 763 763 763 763 764 764 764 765 766 767 768 770 772 773 776 778 781 784 786 789 791 794 798 802 806 809 812 814 816 818 820 822 823 824 825 827 828 829 830 831 832 833 834 835 835 835 834 833
751 749 746 745 743 742 742 741 741 740 739 739 739 739 740 740 741 742 743 743 745 746 747 747 748 748 748 749 749 749 750 752 754 756 757 758 759 760 760 760 761 761 761 762 763 764 765 766 767 769 770 773 776 779 783 786 788 791 795 799 803 806 808 810 812 814 816 817 820 821 822 823 825 826 827 828 829 830 831 831 832 832 832 832 831
749 746 744 742 741 739 739 738 737 736 736 736 736 736 736 735 735 736 737 739 740 741 742 743 744 745 745 745 746 746 747 749 751 752 753 755 756 757 757 758 758 758 759 759 760 761 762 763 765 766 768 771 774 777 781 785 789 792 796 799 802 804 807 809 811 813 815 816 818 819 820 822 823 823 824 825 826 828 828 829 830 830 830 830 830
747 744 741 740 738 737 736 735 734 733 733 733 733 733 733 732 731 731 732 733 734 736 737 739 740 741 741 742 743 743 745 747 748 749 750 751 752 753 754 755 756 756 756 757 758 759 760 761 762 764 766 769 772 775 779 783 787 791 794 797 800 803 805 808 810 812 815 816 817 818 818 820 820 821 822 823 824 825 826 827 828 828 828 828 828
745 742 739 737 736 735 734 732 731 730 730 730 730 729 729 729 730 730 730 730 730 731 733 735 736 736 737 738 739 740 742 743 745 746 747 748 750 751 752 753 753 754 755 755 756 757 758 759 761 762 764 767 770 773 777 781 785 788 792 795 799 802 805 807 809 811 813 815 816 816 816 817 818 819 820 821 822 823 824 825 825 826 826 827 827
743 740 738 736 735 734 732 730 729 728 728 728 727 726 726 726 727 728 728 728 728 729 730 731 732 733 734 735 736 736 738 740 741 742 744 746 747 749 750 750 751 752 753 754 755 756 757 758 760 762 764 766 769 773 777 781 784 788 790 794 797 801 804 806 808 810 812 813 814 814 814 815 817 818 819 820 820 821 822 823 823 824 825 825 825
740 738 737 735 734 732 731 729 727 726 726 725 724 724 724 724 724 725 725 726 726 726 728 728 729 731 731 732 733 734 736 737 738 740 741 743 745 746 747 748 749 750 751 752 753 755 756 758 760 762 764 767 771 775 778 781 785 788 790 793 796 799 802 805 807 809 810 811 812 812 813 814 816 817 818 818 819 819 819 820 822 822 823 824 824
738 736 734 732 731 730 728 727 725 723 723 722 721 722 722 722 723 724 724 724 724 725 726 727 728 728 729 730 732 733 734 735 736 738 739 741 743 744 745 747 748 749 750 752 753 754 756 758 760 762 764 767 771 774 777 780 784 787 790 793 796 798 801 803 806 808 809 810 811 812 813 814 815 816 816 816 816 817 817 818 819 820 821 822 822
737 735 732 730 728 727 726 724 723 721 720 719 719 719 720 720 721 722 723 723 723 724 725 725 726 727 728 729 730 731 732 733 734 736 738 739 741 743 744 746 747 748 750 751 753 754 756 758 760 761 763 766 770 773 777 780 784 787 790 793 795 798 800 802 804 806 807 809 810 811 813 813 814 814 813 814 814 815 816 816 817 818 819 819 821
737 734 731 728 726 725 724 722 721 720 718 717 717 717 717 717 718 719 721 722 722 723 723 724 724 725 726 727 728 729 730 731 733 734 736 738 740 741 743 744 745 746 748 750 752 753 755 757 760 762 765 767 771 774 778 781 784 786 789 792 794 797 799 801 803 805 806 808 810 811 812 811 812 812 812 813 814 814 814 815 815 816 817 818 819
735 732 729 727 725 723 722 721 720 719 717 717 716 715 714 714 715 716 717 719 720 721 722 723 724 724 725 726 727 728 729 730 731 733 734 736 738 740 741 742 743 744 746 749 751 753 755 757 760 763 766 769 772 775 779 782 784 786 789 791 793 795 797 799 802 804 806 808 809 810 810 810 810 811 811 812 813 813 814 814 814 815 816 816 816
733 730 728 725 723 721 720 719 718 717 717 716 715 714 714 713 713 713 714 715 717 718 719 721 722 723 724 725 726 727 728 729 730 731 733 735 737 738 740 741 742 743 746 748 751 752 754 757 760 763 766 769 772 776 779 783 785 786 788 790 791 794 796 798 801 803 805 807 808 808 808 808 809 810 811 811 812 813 813 813 814 814 814 814 814
731 729 727 724 722 720 719 717 716 715 715 715 715 714 714 713 713 713 713 713 715 716 718 719 721 722 723 724 725 726 727 728 729 730 732 733 735 737 738 740 742 743 745 747 749 751 754 756 759 763 766 769 772 776 779 782 784 785 787 789 790 793 795 797 800 802 804 806 806 806 807 807 808 809 810 811 811 812 812 813 813 813 813 813 812
728 727 725 724 722 720 718 717 715 714 714 713 714 714 714 714 713 713 713 713 714 715 716 718 719 720 722 723 724 725 726 727 729 730 731 732 734 736 737 739 741 742 744 746 748 751 753 756 759 763 766 769 773 776 779 781 782 784 786 788 790 792 794 796 799 801 803 804 804 805 805 806 807 808 809 810 811 811 812 812 812 812 812 811 811
726 724 723 722 721 720 718 716 715 713 712 712 712 712 713 713 713 713 713 713 714 714 716 717 718 719 721 722 723 724 726 727 728 730 731 732 734 735 737 739 741 742 744 746 748 750 753 756 760 763 767 770 774 776 778 780 782 783 785 787 789 791 793 796 798 800 801 802 802 803 804 805 806 807 808 809 810 810 810 810 810 810 810 810 810
724 722 721 720 720 719 717 716 714 713 712 711 710 710 711 711 712 713 713 713 713 714 715 716 718 719 720 721 722 724 725 727 728 730 731 733 734 736 737 739 741 743 745 746 749 751 754 758 761 764 768 771 773 775 777 779 781 783 785 786 788 791 792 794 797 798 799 799 800 801 802 803 805 806 807 808 808 808 808 808 808 809 809 809 809
723 721 719 717 717 718 717 716 714 712 711 710 709 709 709 710 711 711 711 712 712 713 714 715 717 718 719 720 721 723 725 727 728 730 731 733 734 736 738 740 741 743 745 747 750 752 755 758 762 764 767 770 772 774 776 778 780 782 784 786 788 789 791 793 795 796 796 797 798 800 801 802 803 804 805 806 806 806 806 806 807 807 807 807 807
723 721 718 716 715 715 716 716 715 713 711 710 709 708 708 708 709 709 709 710 710 711 711 712 714 716 718 719 720 722 724 725 727 729 730 732 734 736 737 739 741 743 745 747 750 753 755 758 760 763 765 767 770 773 775 776 778 780 782 785 786 787 789 792 793 794 795 796 797 798 799 800 802 803 803 804 804 804 804 805 805 805 806 806 806
723 721 718 716 713 713 714 715 715 714 712 710 709 708 707 707 707 708 709 709 709 709 709 710 712 714 716 718 719 720 722 723 725 728 730 732 733 735 736 739 740 743 745 747 750 752 754 757 759 761 764 766 768 771 773 775 777 780 781 783 784 785 788 790 791 792 793 794 795 796 797 799 800 801 801 801 802 802 802 803 803 803 804 804 804
721 721 719 717 714 712 712 713 714 715 713 711 710 708 707 707 707 707 708 709 710 710 710 711 712 713 716 717 718 719 719 720 723 726 729 731 733 734 736 738 740 743 746 748 750 752 754 756 759 760 763 765 767 769 771 774 776 778 780 781 782 784 786 788 789 790 791 792 793 795 796 798 798 799 799 799 800 800 801 801 801 802 802 802 802
720 719 719 718 716 713 711 711 712 714 714 713 711 710 708 708 707 707 708 708 710 711 711 712 713 714 716 717 718 719 721 721 723 725 728 730 733 734 736 739 741 743 745 748 750 753 754 756 759 761 763 764 766 768 770 772 774 776 778 779 781 783 785 786 787 789 790 791 793 794 795 796 797 797 797 798 798 798 799 799 799 800 800 800 800
718 717 718 718 717 716 713 711 711 713 714 714 714 712 710 708 707 707 707 708 709 710 711 713 714 716 718 718 718 719 721 722 723 726 728 730 732 734 736 738 741 743 746 748 750 753 754 756 758 760 762 763 765 767 768 770 772 774 775 777 779 781 783 784 786 787 789 790 792 794 794 795 795 796 796 796 796 796 796 797 798 798 798 798 798
716 715 715 716 717 717 715 713 712 713 714 715 716 715 713 711 709 707 708 708 709 710 711 712 714 716 718 719 720 720 721 722 724 726 728 730 732 733 735 738 740 743 745 747 749 752 753 755 756 758 760 761 763 765 767 769 771 772 773 775 777 780 782 784 785 787 789 791 792 793 793 794 794 795 795 795 795 794 795 795 796 796 796 796 796
715 713 713 714 715 715 715 714 713 713 714 715 716 717 717 715 713 711 710 709 710 711 711 712 714 716 718 719 720 721 722 723 724 726 728 731 732 733 735 738 740 743 744 746 748 749 751 753 754 756 757 759 761 763 765 768 770 771 773 775 778 780 782 783 785 787 789 790 791 792 792 792 793 793 793 793 793 793 793 794 794 794 794 794 794
714 713 712 712 712 712 712 712 711 712 713 714 715 716 718 718 717 716 713 711 711 711 712 713 714 716 718 719 720 721 722 723 725 727 728 730 732 733 735 737 739 741 743 744 746 747 749 751 752 754 756 758 760 762 764 766 769 771 773 775 778 780 781 782 784 786 788 789 789 790 790 791 791 791 791 791 791 791 791 792 792 793 793 793 792
712 712 711 710 710 710 710 710 709 708 709 711 713 715 716 717 718 718 716 715 713 713 713 714 716 718 720 720 721 721 722 724 725 727 729 731 732 733 734 735 737 739 741 743 745 747 748 750 751 753 755 757 759 761 764 766 768 771 773 775 777 779 780 781 783 785 786 787 787 788 788 789 789 789 789 789 789 789 790 790 791 791 791 791 790
708 708 709 709 708 708 708 708 708 708 708 709 711 713 715 716 717 717 717 716 716 715 715 716 718 720 722 722 723 724 725 726 728 729 731 733 734 734 734 735 736 739 741 743 745 747 748 750 751 753 755 756 759 761 763 766 768 771 773 775 777 778 779 781 782 783 784 785 785 786 786 787 787 787 787 787 787 788 788 789 789 790 790 789 788
704 704 705 706 707 706 706 706 707 708 709 709 709 710 712 714 715 716 717 717 717 717 717 718 721 723 723 723 724 725 726 728 730 731 733 734 734 734 734 735 737 738 740 743 745 746 748 749 751 753 754 756 758 761 763 766 768 770 772 774 776 777 779 780 781 782 782 783 783 784 784 785 785 785 785 785 786 786 787 788 788 788 788 787 786
702 701 702 703 704 704 704 704 704 706 709 709 709 709 710 711 712 714 716 717 718 718 718 720 723 725 725 724 725 726 727 728 729 731 732 732 732 733 734 735 737 739 741 743 745 746 748 749 751 753 755 756 759 761 763 765 767 770 771 773 774 776 777 778 779 780 780 781 782 782 783 783 783 784 784 784 784 785 786 786 786 786 786 785 784
701 699 699 700 701 702 702 702 702 704 707 709 710 710 711 711 711 713 714 716 717 718 719 721 724 725 725 726 726 726 726 727 729 730 731 731 732 733 734 736 737 739 741 743 745 747 748 750 751 753 755 756 758 760 763 765 767 768 770 771 773 775 776 777 777 778 779 779 780 781 781 781 782 782 782 783 783 784 785 785 785 784 784 783 783
700 698 697 698 699 700 700 699 699 701 705 708 710 711 712 712 712 713 714 716 717 718 719 721 723 725 726 726 727 727 727 728 729 730 731 731 732 734 735 736 738 740 742 744 745 747 748 749 751 752 754 756 758 760 762 764 765 767 768 770 772 773 774 775 775 776 777 778 778 779 779 779 780 780 781 781 782 783 783 783 783 782 782 782 781
698 697 696 696 697 697 697 697 696 698 701 704 707 710 711 712 713 714 715 716 717 718 719 721 723 725 726 727 727 728 729 730 731 731 732 733 734 735 736 738 739 741 743 744 745 747 748 749 751 752 754 755 757 759 760 762 764 765 767 769 770 771 772 773 774 774 775 776 776 776 777 778 778 779 779 780 781 781 781 781 780 780 780 780 779
697 696 695 695 695 696 696 695 695 696 698 700 704 707 709 711 712 714 715 716 718 719 720 722 724 725 726 727 728 729 730 731 732 733 733 735 735 736 737 739 740 741 743 744 745 747 748 749 750 752 753 755 756 758 759 761 763 764 766 767 768 769 770 771 771 772 773 773 774 774 775 776 776 777 778 778 779 779 778 778 778 778 778 778 778
694 694 693 693 694 696 696 696 696 696 696 698 701 704 707 709 711 712 714 716 717 719 721 723 724 725 726 727 728 730 730 731 732 734 735 736 736 737 738 739 740 741 743 744 745 746 747 748 750 751 752 754 755 757 758 760 762 763 764 765 766 767 767 768 769 770 770 771 772 772 773 774 774 775 775 775 776 776 776 775 775 775 776 776 776
692 692 692 692 694 695 696 696 697 697 697 699 701 704 706 708 710 711 713 714 716 718 721 723 724 725 726 727 729 730 730 731 733 734 735 735 736 737 738 739 740 742 743 744 745 746 747 748 749 750 751 753 754 756 757 759 760 761 762 763 764 765 765 766 767 767 768 768 769 770 770 771 771 772 772 772 773 773 772 773 773 773 773 773 773
691 690 690 690 692 694 695 695 695 695 696 698 700 703 706 708 710 711 713 714 716 718 720 722 723 725 726 728 729 729 730 732 732 733 734 735 735 737 738 739 741 742 742 743 744 745 746 747 748 749 750 752 753 755 756 757 759 760 760 761 762 762 763 763 764 765 765 766 766 767 768 768 768 769 769 769 770 770 770 770 770 770 771 771 770
689 689 689 689 690 692 694 695 695 694 695 696 699 702 705 707 709 711 713 714 716 717 719 721 723 725 726 727 728 729 730 731 732 732 733 735 736 737 739 740 741 742 742 743 743 744 745 746 746 748 749 751 752 753 755 755 756 757 758 758 759 760 760 761 762 762 763 763 764 764 765 765 765 766 766 766 767 767 767 767 767 768 768 768 768
689 688 688 688 688 690 693 694 694 694 694 695 698 701 704 707 710 712 713 714 716 717 719 721 723 724 726 727 728 729 730 730 731 732 734 735 737 738 739 740 741 741 742 742 743 743 744 745 745 747 748 749 750 752 752 753 754 755 755 756 757 757 758 759 759 760 760 760 761 761 762 762 762 763 763 763 764 764 764 764 764 765 765 765 765
688 688 688 688 687 689 691 693 694 694 694 695 697 700 704 707 710 712 713 714 715 717 719 721 722 724 726 727 727 728 729 729 730 732 734 735 737 738 739 740 740 741 741 742 742 742 743 744 745 746 747 748 749 750 751 751 752 752 753 754 754 755 755 756 756 756 757 757 757 758 758 758 759 759 760 760 760 760 761 761 761 762 762 762 762
688 689 689 688 687 688 690 693 694 695 695 696 698 700 703 706 709 711 713 714 715 717 719 721 722 724 725 726 726 727 728 729 730 732 733 735 736 737 738 738 739 740 740 741 741 741 742 743 743 745 746 746 747 748 748 749 749 750 750 751 751 752 752 752 753 753 754 754 754 754 755 755 755 756 756 756 757 757 757 758 759 759 759 759 759
689 689 690 689 688 689 690 692 694 695 696 697 698 700 702 705 708 711 713 715 716 717 719 720 722 723 724 725 726 727 728 729 730 731 733 734 735 736 737 737 738 738 739 739 740 740 741 742 742 743 744 745 745 746 746 746 747 747 747 748 748 749 749 749 750 750 750 751 751 751 751 752 752 752 752 753 754 754 755 755 756 756 756 756 756